Brize Norton, United Kingdom

2:17 PM GMT on February 13, 2016 (GMT +0000)
Brize Norton Air Base

Weather History for EGVN - June, 2013

Change the Weather History Date:

Tuesday, June 25, 2013

  Actual Average Record
Temperature  
Mean Temperature 58 °F -  
Max Temperature 68 °F 68 °F - ()
Min Temperature 47 °F 52 °F - ()
Degree Days  
Heating Degree Days 8    
Growing Degree Days 8 (Base 50)    
Moisture  
Dew Point 46 °F    
Average Humidity 65    
Maximum Humidity 93    
Minimum Humidity 31    
Precipitation  
Precipitation 0.00 in - - ()
Sea Level Pressure  
Sea Level Pressure 30.38 in    
Wind  
Wind Speed 4 mph ()    
Max Wind Speed 7 mph    
Max Gust Speed -    
Visibility 10.6 miles    
Events      
T = Trace of Precipitation, MM = Missing Value Source: Averaged Metar Reports

Daily Weather History Graph

Daily Weather History Graph

Search for Another Location

Airport or City:

Trip Planner

Search our weather history database for the weather conditions in past years. The results will help you decide how hot, cold, wet, or windy it might be!

Date:

Astronomy

Jun. 25, 2013 Rise Set
Actual Time 4:48 AM BST 9:29 PM BST
Civil Twilight 4:00 AM BST 10:17 PM BST
Nautical Twilight 2:44 AM BST 11:33 PM BST
Astronomical Twilight 1:41 AM BST 12:36 AM BST
Moon 10:39 PM BST (6/25) 7:30 AM BST (6/25)
Length of Visible Light 18h 16m
Length of Day
16h 40m
Waning Gibbous, 94% of the Moon is Illuminated
Jun 25
Waning Gibbous
Jun 30
Last Quarter
Jul 8
New
Jul 16
First Quarter
Jul 22
Full

Hourly Weather History & Observations

Time (BST) Temp. Dew Point Humidity Pressure Visibility Wind Dir Wind Speed Gust Speed Precip Events Conditions
12:50 AM 51 °F 46 °F 79% 30.33 in 19 mi SSW 4.6 mph - -   Partly Cloudy
12:50 AM 50.0 °F 46.4 °F 87% 30.30 in - SSW 4.6 mph - N/A   Clear
1:50 AM 48.2 °F 46.4 °F 93% 30.33 in - WNW 3.5 mph - N/A   Clear
2:50 AM 50.0 °F 46.4 °F 87% 30.33 in - NW 6.9 mph - N/A   Clear
3:50 AM 49 °F 46 °F 83% 30.35 in 19 mi West 2.3 mph - -   Mostly Cloudy
3:50 AM 50.0 °F 46.4 °F 87% 30.33 in - West 2.3 mph - N/A   Clear
4:50 AM 48.2 °F 44.6 °F 87% 30.33 in - West 3.5 mph - N/A   Clear
5:50 AM 48.2 °F 44.6 °F 87% 30.36 in - WSW 3.5 mph - N/A   Clear
6:50 AM 49 °F 45 °F 83% 30.38 in 16 mi SSW 3.5 mph - -   Scattered Clouds
6:50 AM 50.0 °F 44.6 °F 82% 30.36 in - SSW 3.5 mph - N/A   Clear
7:50 AM 51.8 °F 46.4 °F 82% 30.39 in 6.2 mi SSW 2.3 mph - N/A   Scattered Clouds
8:50 AM 55.4 °F 48.2 °F 77% 30.39 in 6.2 mi SSW 2.3 mph - N/A   Scattered Clouds
9:50 AM 60 °F 47 °F 53% 30.40 in 22 mi West 3.5 mph - -   Scattered Clouds
9:50 AM 59.0 °F 48.2 °F 67% 30.39 in 6.2 mi West 3.5 mph - N/A   Scattered Clouds
10:50 AM 62.6 °F 48.2 °F 59% 30.39 in 6.2 mi NNW 4.6 mph - N/A   Scattered Clouds
11:50 AM 62.6 °F 44.6 °F 52% 30.39 in 6.2 mi NNW 5.8 mph - N/A   Scattered Clouds
12:50 PM 62 °F 46 °F 44% 30.41 in 22 mi NNE 5.8 mph - -   Mostly Cloudy
12:50 PM 62.6 °F 46.4 °F 55% 30.39 in 6.2 mi NNE 5.8 mph - N/A   Mostly Cloudy
1:50 PM 62.6 °F 44.6 °F 52% 30.39 in - NNW 3.5 mph - N/A   Clear
2:50 PM 66.2 °F 46.4 °F 49% 30.39 in - South 3.5 mph - N/A   Clear
3:50 PM 67 °F 44 °F 31% 30.40 in 28 mi NW 4.6 mph - -   Mostly Cloudy
3:50 PM 66.2 °F 42.8 °F 43% 30.39 in - NW 4.6 mph - N/A   Clear
4:50 PM 66.2 °F 46.4 °F 49% 30.39 in - West 5.8 mph - N/A   Clear
5:50 PM 64.4 °F 46.4 °F 52% 30.39 in - North 4.6 mph - N/A   Clear
6:50 PM 65 °F 45 °F 37% 30.40 in 25 mi WNW 4.6 mph - -   Scattered Clouds
6:50 PM 64.4 °F 44.6 °F 49% 30.39 in - WNW 4.6 mph - N/A   Clear
7:50 PM 64.4 °F 46.4 °F 52% 30.39 in 6.2 mi NNW 3.5 mph - N/A   Scattered Clouds
8:50 PM 62.6 °F 48.2 °F 59% 30.39 in - West 2.3 mph - N/A   Clear
9:50 PM 59 °F 48 °F 57% 30.43 in 19 mi WNW 2.3 mph - -   Scattered Clouds
9:50 PM 59.0 °F 48.2 °F 67% 30.42 in - WNW 2.3 mph - N/A   Clear
10:50 PM 57.2 °F 48.2 °F 72% 30.42 in - West 3.5 mph - N/A   Clear
11:50 PM 55.4 °F 48.2 °F 77% 30.42 in - WSW 2.3 mph - N/A   Clear